This demonstration page uses our WeatherBlox Daily Observations layout. Learn more.

Left ArrowRight Arrow

40.92945, -100.16068

Hourly Observations for August 6, 2020

Temp ( °F °C ) Dew Point ( °F °C ) Humidity (%) Winds ( mph kmh ) Pressure ( in mb ) Visibility ( mi km ) Precip ( " mm )
12:15 am 00:15 Cloudy with Light Rain 73 23 67 19.6 81 81 ESE 12 19 29.86 1011 10 16.0934 0 0
12:35 am 00:35 Cloudy with Light Thunderstorms 73 22.5 68 19.9 85 85 S 9 15 29.88 1012 10 16.0934 0 0
12:55 am 00:55 Cloudy with Light Thunderstorms 71 21.8 68 20 90 90 N 3 6 29.89 1012 10 16.0934 0.03 0.762
1:15 am 01:15 Partly Cloudy with Light Thunderstorms 71 21.7 69 20.3 92 92 SE 6 9 29.87 1011 10 16.0934 0.02 0.508
1:35 am 01:35 Partly Cloudy with Light Rain 70 21.1 68 20 93 93 E 5 7 29.86 1011 10 16.0934 0.02 0.508
1:55 am 01:55 Clear 70 20.9 68 19.9 94 94 N 6 9 29.85 1011 10 16.0934 0.03 0.762
2:15 am 02:15 Clear 68 20.2 67 19.5 96 96 E 8 13 29.87 1012 10 16.0934 0 0
2:35 am 02:35 Clear with Thunderstorms 69 20.5 67 19.5 94 94 ENE 6 9 29.86 1011 10 16.0934 0 0
2:55 am 02:55 Clear 69 20.3 67 19.5 95 95 E 8 13 29.86 1011 10 16.0934 0 0
3:15 am 03:15 Clear 68 20.2 67 19.3 95 95 Calm 29.86 1011 10 16.0934 0 0
3:35 am 03:35 Clear 67 19.6 66 19 96 96 S 3 6 29.88 1012 10 16.0934 0 0
3:55 am 03:55 Clear with Mist and Fog 66 19 65 18.5 97 97 Calm 29.87 1012 5 8.0467 0 0
4:15 am 04:15 Clear with Mist and Fog 64 18 64 17.6 98 98 Calm 29.88 1012 3 4.82802 0 0
4:35 am 04:35 Clear with Mist and Fog 64 17.5 63 17.2 98 98 Calm 29.88 1012 2.5 4.02335 0 0
4:55 am 04:55 Cloudy with Fog 63 17.3 63 17.1 99 99 Calm 29.87 1011 0.25 0.402335 0 0
5:15 am 05:15 Cloudy with Fog 63 17 62 16.7 98 98 Calm 29.88 1012 0.25 0.402335 0 0
5:35 am 05:35 Cloudy with Fog 62 16.5 61 16.3 99 99 NNW 5 7 29.89 1012 N/A 0 0
5:55 am 05:55 Cloudy with Fog 62 16.7 62 16.5 99 99 Calm 29.89 1012 0.25 0.402335 0 0
6:15 am 06:15 Cloudy with Fog 63 17.1 63 17 99 99 S 8 13 29.91 1013 0.25 0.402335 0 0
6:35 am 06:35 Cloudy with Fog 65 18.1 64 18 99 99 Calm 29.91 1013 0.25 0.402335 0 0
6:55 am 06:55 Cloudy with Mist and Fog 65 18.3 65 18.1 99 99 SSE 5 7 29.91 1013 1 1.60934 0 0
7:15 am 07:15 Sunny 65 18.3 64 17.7 96 96 Calm 29.91 1013 10 16.0934 0 0
7:35 am 07:35 Sunny 66 18.7 65 18.2 97 97 Calm 29.91 1013 7 11.26538 0 0
7:55 am 07:55 Sunny with Mist and Fog 65 18.6 65 18.1 97 97 N 3 6 29.9 1013 5 8.0467 0 0
8:15 am 08:15 Sunny 66 18.9 65 18.2 96 96 Calm 29.9 1013 7 11.26538 0 0
8:35 am 08:35 Sunny 67 19.4 65 18.5 95 95 Calm 29.9 1012 10 16.0934 0 0
8:55 am 08:55 Sunny 68 20.1 65 18.3 89 89 Calm 29.89 1012 10 16.0934 0 0
9:15 am 09:15 Sunny 70 21 64 18 83 83 Calm 29.87 1012 10 16.0934 0 0
9:35 am 09:35 Sunny 72 22.1 65 18.3 79 79 ESE 3 6 29.86 1011 10 16.0934 0 0
9:55 am 09:55 Partly Cloudy 72 22.3 65 18.3 78 78 E 3 6 29.86 1011 10 16.0934 0 0
10:15 am 10:15 Sunny 75 24 65 18.3 71 71 ESE 3 6 29.85 1011 10 16.0934 0 0
10:35 am 10:35 Sunny 77 25.2 65 18.4 66 66 SSE 9 15 29.85 1011 10 16.0934 0 0
10:55 am 10:55 Sunny 78 25.8 66 18.8 65 65 S 9 15 29.85 1011 10 16.0934 0 0
11:15 am 11:15 Sunny 79 26 67 19.4 67 67 S 6 9 29.85 1011 10 16.0934 0 0
11:35 am 11:35 Sunny 79 26 67 19.4 67 67 S 9 15 29.85 1011 10 16.0934 0 0
11:55 am 11:55 Sunny 81 27 67 19.5 64 64 SSE 10 17 29.84 1011 10 16.0934 0 0
12:15 pm 12:15 Partly Cloudy 81 27.1 67 19.4 63 63 SSE 9 15 29.83 1010 10 16.0934 0 0
12:35 pm 12:35 Partly Cloudy 81 27.2 67 19.4 62 62 SSE 8 13 29.82 1010 10 16.0934 0 0
12:55 pm 12:55 Sunny 82 27.8 67 19.5 61 61 S 9 15 29.82 1010 10 16.0934 0 0
1:15 pm 13:15 Sunny 83 28.4 68 20.1 61 61 SSE 10 17 29.8 1009 10 16.0934 0 0
1:35 pm 13:35 Sunny 83 28.4 68 20 60 60 SE 8 13 29.79 1009 10 16.0934 0 0
1:55 pm 13:55 Sunny 84 28.8 69 20.3 60 60 SSE 12 19 29.79 1009 10 16.0934 0 0
2:15 pm 14:15 Sunny 84 29.1 68 20.1 58 58 S 9 15 29.79 1009 10 16.0934 0 0
2:35 pm 14:35 Sunny 86 30.1 67 19.7 54 54 S 9 15 29.77 1008 10 16.0934 0 0
2:55 pm 14:55 Sunny 86 30 66 18.8 51 51 S 8 13 29.76 1008 10 16.0934 0 0
3:15 pm 15:15 Sunny 87 30.6 68 20.2 54 54 S 10 17 29.74 1007 10 16.0934 0 0
3:35 pm 15:35 Sunny 87 30.4 68 20 54 54 S 10 17 29.75 1007 10 16.0934 0 0
3:55 pm 15:55 Sunny 87 30.5 69 20.3 54 54 SSE 10 17 29.75 1007 10 16.0934 0 0
4:15 pm 16:15 Sunny 87 30.8 69 20.3 54 54 SSE 12 19 29.73 1007 10 16.0934 0 0
4:35 pm 16:35 Sunny 87 30.5 67 19.3 51 51 SSE 14 22 29.74 1007 10 16.0934 0 0
4:55 pm 16:55 Sunny 88 30.9 67 19.7 51 51 SSE 14 22 29.73 1007 10 16.0934 0 0
5:15 pm 17:15 Sunny 87 30.5 68 19.8 53 53 S 12 19 29.74 1007 10 16.0934 0 0
5:35 pm 17:35 Sunny 86 30.1 68 20 55 55 SSE 15 24 29.74 1007 10 16.0934 0 0
5:55 pm 17:55 Sunny 86 30.2 69 20.3 55 55 SSE 15 24 29.73 1007 10 16.0934 0 0
6:15 pm 18:15 Sunny 86 29.9 69 20.7 58 58 SSE 17 28 29.73 1007 10 16.0934 0 0
6:35 pm 18:35 Sunny 84 29.1 69 20.5 60 60 SSE 16 26 29.74 1007 10 16.0934 0 0
6:55 pm 18:55 Sunny 84 28.8 71 21.5 65 65 SSE 13 20 29.74 1007 10 16.0934 0 0
7:15 pm 19:15 Sunny 83 28.3 71 21.7 67 67 SSE 12 19 29.74 1007 10 16.0934 0 0
7:35 pm 19:35 Sunny 82 27.6 71 21.6 70 70 SSE 14 22 29.76 1008 10 16.0934 0 0
7:55 pm 19:55 Sunny 81 27.1 71 21.5 72 72 SE 10 17 29.76 1008 10 16.0934 0 0
8:15 pm 20:15 Sunny 80 26.7 71 21.5 73 73 SE 10 17 29.78 1008 10 16.0934 0 0
8:35 pm 20:35 Sunny 79 26.3 71 21.7 76 76 SE 12 19 29.78 1008 10 16.0934 0 0
8:55 pm 20:55 Clear 79 26 71 21.7 77 77 SE 10 17 29.78 1009 10 16.0934 0 0
9:15 pm 21:15 Clear 78 25.5 71 21.7 80 80 SE 8 13 29.79 1009 10 16.0934 0 0
9:35 pm 21:35 Clear 77 25 71 21.7 82 82 SE 10 17 29.8 1009 10 16.0934 0 0
9:55 pm 21:55 Clear 76 24.7 71 21.5 82 82 SE 9 15 29.8 1009 10 16.0934 0 0
10:15 pm 22:15 Clear 76 24.6 71 21.4 82 82 SE 13 20 29.8 1009 10 16.0934 0 0
10:35 pm 22:35 Clear 76 24.4 70 21.3 83 83 SE 9 15 29.82 1010 10 16.0934 0 0
10:55 pm 22:55 Clear with Thunderstorms 75 24 70 21.3 85 85 SE 9 15 29.81 1009 10 16.0934 0 0
11:15 pm 23:15 Clear 74 23.6 70 21.1 86 86 SSE 12 19 29.8 1009 10 16.0934 0 0
11:35 pm 23:35 Clear 73 23 70 21 89 89 SSE 10 17 29.82 1010 10 16.0934 0 0
11:55 pm 23:55 Clear 73 23 69 20.7 87 87 SSE 7 11 29.83 1010 10 16.0934 0 0

Powered by AerisWeather